San Diego Classic - Holiday Cup - 21 Mile Toss

Station: 21 Mile Toss - T Race

Distance: 21 Miles

Release: 10-Oct-2018 08:00

Weather Release:    Arrival:

Wind at Release:     Wind at Arrival:

Temp at Release: °    Temp at Arrival: °

Lofts: 119

Birds: 455

Clocked: 445

Good Luck to Everyone!
Drops Pos Breeder Pigeon Name Color Sex Ent Arrival Speed To Win Eligible RaceAvg Speed
1 Bill Dozier & Kincaid Light - TX 0059-AU18-TEX BB H 1 08:42:55.10 861.170 00:00:00 Yes
2 Christian & Adam Gluck - CA 3765-AU18-COM BB H 1 08:43:58.60 840.446 00:01:03 Yes
3 Alan Taylor - UT 0627-AU18-UVI BC H 1 08:43:59.10 840.286 00:01:04 Yes
4 Jsrl - CA 34618-AU18-JEDD BB H 1 08:44:01.00 839.682 00:01:06 Yes
5 Team Omaha - NE 0370-AU18-CAR BB H 1 08:45:41.00 809.048 00:02:46 Yes
6 Dan And Greg Coury - AZ 0201-AU18-DUTC BB H 1 08:46:40.30 791.915 00:03:45 Yes
7 Tom Cano Family - CA 0847-AU18-SD BBWF H 1 08:46:42.80 791.209 00:03:48 Yes
8 Hi-Cal Connection - CA 0779-AU18-HICA BC H 1 08:46:43.60 790.983 00:03:48 Yes
9 Hi-Cal Connection - CA 0804-AU18-HICA BB H 2 08:47:50.30 772.602 00:04:55 Yes
10 Garcia & Franco - CA 0022-AU18-Y2K RSPL H 1 08:48:36.60 760.337 00:05:42 Yes
11 Anthony Cuba - CA 2383-AU18-HP BBWF H 1 08:48:40.60 759.296 00:05:45 Yes
12 Rick Barker - CA 0277-AU18-VIP BB H 1 08:48:48.00 757.377 00:05:53 Yes
13 C P C A Syndicate - AZ 0514-AU18-SLI BC H 1 08:48:48.50 757.248 00:05:53 Yes
14 Humberto Munoz - EM 27148-AU18-MEX BB H 1 08:48:51.70 756.421 00:05:57 Yes
15 Jeff Earthman - NV 0867-AU18-EART BB H 1 08:48:57.00 755.056 00:06:02 Yes
16 Two-Be-Won - NV 18098-AU18-TBW 13062-11154 BB H 1 08:48:58.10 754.773 00:06:03 Yes
17 Kolvenbag & Son - PA 1270-AU18-KOLV BC H 1 08:49:06.10 752.724 00:06:11 Yes
18 John Hedderson - CA 0809-AU18-HEDD 6855x6853b BB H 1 08:49:08.20 752.188 00:06:13 Yes
19 C P C A Syndicate - AZ 0588-AU18-SLI BBWF H 2 08:49:08.70 752.060 00:06:14 Yes
20 Tom Cano Family - CA 0808-AU18-SD SIL H 2 08:49:09.50 751.856 00:06:14 Yes
21 Flying D Loft - TX 0713-AU18-FLYD BB H 1 08:49:10.80 751.525 00:06:16 Yes
22 Mcknight & Mellinger - CA 0795-AU18-JEDD "Jimmy's Queen" BB H 1 08:49:12.60 751.067 00:06:17 Yes
23 Mcknight & Mellinger - CA 1202-AU18-JEDD "Dangerous" BB H 2 08:49:15.00 750.457 00:06:20 Yes
24 Lillie & Cecil - CA 1877-AU18-WEBE Fe DC H 1 08:49:21.90 748.709 00:06:27 Yes
25 Reid Racing Pigeons - CA 3182-AU18-HP CHOC H 1 08:49:25.50 747.800 00:06:30 Yes
26 Avitron Loft - CA 1581-AU18-SD BC H 1 08:49:30.60 746.516 00:06:35 Yes
27 Avitron Loft - CA 1503-AU18-SD DC H 2 08:49:45.60 742.765 00:06:50 Yes
28 Four For More 2 - CA 1829-AU18-C7 BB H 1 08:49:49.60 741.771 00:06:55 Yes
29 Dan And Greg Coury - AZ 1541-AU18-DUTC BB H 2 08:49:50.40 741.573 00:06:55 Yes
30 El Dorado Lofts Canada - BC 11621-CU18-CRPU BCWF H 1 08:49:51.60 741.276 00:06:56 Yes
30 Genesis Syndicate Loft - AZ 0338-AU18-GS BB H 1 08:49:51.60 741.276 00:06:56 Yes
32 Alma Missiles Castro - AZ 9224-AU18-MISS BCSP H 1 08:49:58.00 739.693 00:07:03 Yes
33 Two-Be-Won - NV 18010-AU18-TBW 15015-11154 BC H 2 08:50:03.70 738.289 00:07:09 Yes
34 Pairan Racing Loft - OH 0106-AU18-GUYS BB H 1 08:50:27.70 732.437 00:07:33 Yes
35 Y2k Team - CA 0185-AU18-Y2K BB H 1 08:50:30.50 731.760 00:07:35 Yes
36 Mcconnell Loft - FL 10121-AU18-GHC BB H 1 08:52:47.40 700.133 00:09:52 Yes
37 Kolvenbag & Son - PA 1271-AU18-KOLV BC H 2 08:53:29.50 690.949 00:10:34 Yes
38 Quest Syndicate - TX 18055-AU18-QS BB H 1 08:53:35.00 689.767 00:10:40 Yes
39 Transilvania Loft - NV 9447-AU18-JEDD BB H 1 08:53:35.50 689.659 00:10:40 Yes
40 Los Banditos - CA 0717-AU18-OAKS BB H 1 08:53:38.00 689.124 00:10:43 Yes
41 Bill Wieland Loft - BC 1821-CU18-WCW MLY H 1 08:54:02.40 683.938 00:11:07 Yes
42 Tim Brandon - CA 0358-AU18-LAP BB H 1 08:54:13.70 681.563 00:11:19 Yes
43 Hawaiian Express - CA 0100-AU18-HE BB H 1 08:54:15.10 681.269 00:11:20 Yes
44 C & D Loft - CA 0971-AU18-PAL BB H 1 08:55:18.20 668.314 00:12:23 Yes
45 Mesopotamia Loft - MN 6195-AU18-ARPU DC H 1 08:55:21.30 667.690 00:12:26 Yes
46 Two-Be-Won - NV 18028-AU18-TBW 15003-15002 BB H 3 08:55:26.00 666.747 00:12:31 Yes
47 English Syndicate - UK 27610-GB18-GBE BB H 1 08:55:28.30 666.286 00:12:33 Yes
48 C & D Loft - CA 0963-AU18-PAL BB H 2 08:55:33.50 665.247 00:12:38 Yes
49 Lamp Post Loft - CA 18068-AU18-JEDD BB H 1 08:55:45.10 662.940 00:12:50 Yes
50 Sandstrom Brothers Loft - MN 0957-AU18-SBL BCPD H 1 08:56:38.60 652.504 00:13:43 Yes
51 Dehesa Valley Lofts - CA 18032-AU18-DEHE BB H 1 08:57:27.10 643.323 00:14:32 Yes
52 No Limit Loft - CA 4815-AU18-HP BB H 1 08:57:57.60 637.681 00:15:02 Yes
53 Genesis Syndicate Loft - AZ 0522-AU18-GS BBWF H 2 08:57:59.00 637.425 00:15:04 Yes
54 Bandido Loft - MN 0016-AU18-JP BC H 1 08:57:59.80 637.278 00:15:05 Yes
55 C & D Loft - CA 0978-AU18-PAL BCWF H 3 08:58:02.30 636.820 00:15:07 Yes
56 El Dorado Lofts Canada - BC 11634-CU18-CRPU BCSP H 2 08:58:05.50 636.236 00:15:10 Yes
57 Manzo Loft - CA 0004-AU18-FVC BB H 1 08:58:16.00 634.325 00:15:21 Yes
58 Barry Venn - WY 18257-AU18-VENN BCSP H 1 08:58:41.20 629.785 00:15:46 Yes
59 Drama Queen Loft - TX 1031-AU18-GCI BB H 1 08:59:00.60 626.335 00:16:05 Yes
60 Manzo Loft - CA 0072-AU18-FVC SIL H 2 08:59:01.10 626.246 00:16:06 Yes
61 Alan Taylor - UT 0635-AU18-UVI BB H 2 08:59:07.00 625.204 00:16:12 Yes
62 Jalisco - CA 2011-AU18-JALI BB H 1 08:59:07.70 625.081 00:16:13 Yes
63 Utaz Team - UT 1316-AU18-DUTC BC H 1 08:59:08.30 624.975 00:16:13 Yes
64 No Limit Loft - CA 4816-AU18-HP BB H 2 08:59:08.70 624.905 00:16:14 Yes
65 Bieche Lofts - CA 8380-AU18-BIEC BC H 1 08:59:09.20 624.817 00:16:14 Yes
66 Flying D Loft - TX 0641-AU18-FLYD BB H 2 08:59:10.50 624.588 00:16:15 Yes
67 Tony Chang - CA 23918-AU18-JEDD BB H 1 08:59:11.10 624.483 00:16:16 Yes
68 New Generation Loft - CA 2024-AU18-JALI BB H 1 08:59:11.70 624.377 00:16:17 Yes
68 John Karnofel - CA 0882-AU18-KFL Ms Kerby BB H 1 08:59:11.70 624.377 00:16:17 Yes
70 Drama Queen Loft - TX 1060-AU18-GCI BB H 2 08:59:12.30 624.272 00:16:17 Yes
71 Dan And Greg Coury - AZ 0831-AU18-PEGA DCWF H 3 08:59:13.10 624.131 00:16:18 Yes
72 Alma Missiles Castro - AZ 8924-AU18-MISS BB H 2 08:59:13.60 624.043 00:16:18 Yes
73 Rick Barker - CA 0209-AU18-VIP BB H 2 08:59:14.10 623.955 00:16:19 Yes
74 Hawaiian Express - CA 0015-AU18-HE BCWF H 2 08:59:14.70 623.850 00:16:20 Yes
75 Lillie & Cecil - CA 1821-AU18-WEBE Bendita Tu Luz BB H 2 08:59:15.20 623.762 00:16:20 Yes
76 Two-Be-Won - NV 18012-AU18-TBW 15006-15007 BB H 4 08:59:16.00 623.622 00:16:21 Yes
77 Kolvenbag & Son - PA 1259-AU18-KOLV BB H 3 08:59:16.50 623.534 00:16:21 Yes
78 Kfly Racing Pigeon Loft - ID 9401-AU18-WII Aarricobeele 01 DC H 1 08:59:17.00 623.447 00:16:22 Yes
79 Genesis Syndicate Loft - AZ 0496-AU18-GS BBWF H 3 08:59:17.60 623.342 00:16:22 Yes
79 Duane Gragg - CA 0807-AU18-KEYH BC H 1 08:59:17.60 623.342 00:16:22 Yes
81 Nemeth Family Loft - CA 0846-AU18-BON DC H 1 08:59:18.90 623.114 00:16:24 Yes
81 We Be She's - NV 18059-AU18-TBW 15002-15003 BB H 1 08:59:18.90 623.114 00:16:24 Yes
83 John Hedderson - CA 0800-AU18-HEDD 6855x6853 BC H 2 08:59:19.00 623.096 00:16:24 Yes
83 Barry Venn - WY 18258-AU18-VENN BC H 2 08:59:19.00 623.096 00:16:24 Yes
85 Sandstrom Brothers Loft - MN 0949-AU18-SBL BC H 2 08:59:19.50 623.009 00:16:24 Yes
86 Missiles Castro - AZ 0724-AU18-MISS BBSP H 1 08:59:19.90 622.939 00:16:25 Yes
86 El Dorado Lofts Canada - BC 11619-CU18-CRPU SIL H 3 08:59:19.90 622.939 00:16:25 Yes
88 Nemelka Racing Pigeon Loft - UT 8128-AU18-NRPL deBelsar2 x Splendiferous BB C 1 08:59:20.40 622.851 00:16:25 Yes
89 Nemeth Family Loft - CA 0815-AU18-BON BCWF H 2 08:59:21.10 622.729 00:16:26 Yes
89 Mesopotamia Loft - MN 6114-AU18-ARPU BB H 2 08:59:21.10 622.729 00:16:26 Yes
91 Rick Barker - CA 0279-AU18-VIP BBPD H 3 08:59:21.40 622.676 00:16:26 Yes
92 Utaz Team - UT 0198-AU18-PSC BC H 2 08:59:21.70 622.624 00:16:27 Yes
93 Los Barneros - CA 0731-AU18-SEL BC H 1 08:59:22.20 622.537 00:16:27 Yes
94 Bandido Loft - MN 0013-AU18-JP BBSP H 2 08:59:22.30 622.519 00:16:27 Yes
95 Martha & Darwin Stork - CA 0127-AU18-Y2K BC H 1 08:59:22.60 622.467 00:16:27 Yes
96 Anthony Cuba - CA 2385-AU18-HP BBWF H 2 08:59:23.10 622.379 00:16:28 Yes
97 Hi-Cal Connection - CA 0892-AU18-HICA BB H 3 08:59:23.40 622.327 00:16:28 Yes
98 Two-Be-Won - NV 18034-AU18-TBW 11007-15229 GRZ H 5 08:59:24.10 622.205 00:16:29 Yes
99 Mcconnell Loft - FL 2124-AU18-GHC BC H 2 08:59:24.60 622.117 00:16:30 Yes
100 Carlton Kroese-Crazy Al - CO 5311-AU18-CRAZ BB H 1 08:59:25.00 622.048 00:16:30 Yes

There are 717 bird records

Note: These Race Results are unofficial and subject to change until verified by the Race Committee and declared final.